QPF
0.25 0.20 0.14 0.12 0.09 0.10 0.11 0.10 0.09 0.09 0.08 0.09 0.11 0.11 0.17 0.23 0.15 0.12 0.10 0.12 0.13 0.13 0.16 0.13 0.10 0.10 0.09 0.08 0.10 0.11 0.11 0.09 0.08 0.08 0.08 0.07 0.06 0.07 0.07 0.08 0.08 0.07 0.05
0.28 0.19 0.13 0.11 0.10 0.09 0.09 0.10 0.11 0.13 0.11 0.10 0.11 0.12 0.14 0.18 0.14 0.10 0.08 0.07 0.09 0.12 0.11 0.08 0.08 0.07 0.09 0.09 0.08 0.05 0.05 0.04 0.05 0.06 0.06 0.05 0.05 0.05 0.07 0.08 0.08 0.08 0.05
0.23 0.20 0.15 0.13 0.11 0.09 0.08 0.10 0.13 0.13 0.11 0.11 0.12 0.12 0.10 0.11 0.08 0.08 0.08 0.06 0.10 0.12 0.09 0.06 0.07 0.07 0.09 0.09 0.06 0.04 0.04 0.04 0.04 0.05 0.06 0.05 0.03 0.04 0.05 0.06 0.07 0.06 0.05
0.20 0.14 0.12 0.10 0.10 0.10 0.06 0.05 0.06 0.08 0.09 0.11 0.13 0.09 0.08 0.06 0.07 0.07 0.06 0.07 0.10 0.11 0.09 0.07 0.06 0.06 0.08 0.07 0.04 0.03 0.04 0.04 0.04 0.05 0.07 0.06 0.03 0.03 0.04 0.04 0.05 0.05 0.04
0.12 0.08 0.07 0.07 0.08 0.08 0.06 0.05 0.06 0.09 0.11 0.12 0.15 0.10 0.07 0.06 0.07 0.08 0.07 0.08 0.09 0.10 0.09 0.08 0.06 0.06 0.07 0.06 0.03 0.03 0.03 0.04 0.05 0.05 0.05 0.05 0.03 0.03 0.04 0.04 0.05 0.05 0.03
0.07 0.05 0.04 0.04 0.04 0.05 0.06 0.06 0.08 0.11 0.12 0.13 0.15 0.10 0.07 0.07 0.07 0.09 0.09 0.09 0.10 0.07 0.07 0.08 0.06 0.06 0.06 0.04 0.03 0.03 0.03 0.03 0.05 0.03 0.04 0.03 0.02 0.03 0.04 0.05 0.05 0.04 0.05
0.05 0.04 0.03 0.03 0.04 0.05 0.07 0.08 0.10 0.15 0.15 0.13 0.11 0.09 0.06 0.06 0.07 0.09 0.08 0.09 0.10 0.09 0.08 0.06 0.06 0.05 0.04 0.03 0.02 0.02 0.03 0.04 0.05 0.04 0.05 0.05 0.04 0.03 0.03 0.04 0.04 0.05 0.09
0.05 0.04 0.04 0.03 0.02 0.04 0.08 0.09 0.12 0.15 0.13 0.09 0.08 0.07 0.06 0.07 0.07 0.07 0.07 0.09 0.11 0.12 0.09 0.06 0.06 0.04 0.03 0.02 0.02 0.02 0.04 0.05 0.04 0.03 0.05 0.05 0.04 0.03 0.03 0.03 0.03 0.06 0.09
0.04 0.04 0.04 0.03 0.03 0.05 0.09 0.11 0.12 0.13 0.11 0.09 0.07 0.07 0.08 0.08 0.07 0.06 0.06 0.08 0.09 0.09 0.07 0.06 0.05 0.04 0.03 0.02 0.02 0.03 0.03 0.03 0.03 0.02 0.03 0.03 0.03 0.03 0.02 0.02 0.02 0.04 0.05
0.03 0.03 0.03 0.02 0.04 0.08 0.12 0.15 0.15 0.13 0.13 0.12 0.08 0.08 0.08 0.08 0.07 0.08 0.08 0.09 0.09 0.08 0.06 0.05 0.05 0.04 0.03 0.03 0.03 0.04 0.04 0.03 0.04 0.03 0.03 0.02 0.02 0.03 0.02 0.02 0.02 0.03 0.04
0.02 0.02 0.03 0.03 0.08 0.19 0.24 0.20 0.21 0.20 0.18 0.18 0.14 0.08 0.08 0.11 0.11 0.14 0.11 0.10 0.09 0.08 0.06 0.06 0.06 0.04 0.04 0.03 0.04 0.04 0.05 0.05 0.07 0.07 0.07 0.04 0.03 0.03 0.03 0.03 0.03 0.04 0.04
0.02 0.02 0.02 0.04 0.09 0.20 0.18 0.14 0.19 0.20 0.18 0.18 0.16 0.13 0.15 0.16 0.12 0.12 0.12 0.08 0.07 0.06 0.07 0.07 0.06 0.04 0.03 0.03 0.04 0.05 0.05 0.06 0.05 0.05 0.05 0.04 0.03 0.03 0.03 0.03 0.03 0.04 0.04
0.03 0.04 0.04 0.06 0.10 0.09 0.08 0.09 0.15 0.18 0.18 0.16 0.12 0.09 0.11 0.11 0.11 0.11 0.14 0.12 0.10 0.09 0.09 0.09 0.07 0.04 0.04 0.04 0.05 0.05 0.04 0.05 0.05 0.08 0.06 0.04 0.03 0.03 0.03 0.04 0.03 0.03 0.04
0.04 0.05 0.06 0.07 0.09 0.07 0.07 0.08 0.11 0.14 0.15 0.15 0.11 0.08 0.11 0.12 0.15 0.18 0.19 0.16 0.14 0.13 0.13 0.12 0.10 0.06 0.06 0.06 0.06 0.08 0.07 0.06 0.05 0.06 0.06 0.05 0.06 0.05 0.04 0.04 0.04 0.03 0.03
0.03 0.04 0.04 0.06 0.06 0.06 0.06 0.06 0.07 0.10 0.13 0.14 0.13 0.11 0.11 0.11 0.12 0.14 0.14 0.14 0.12 0.12 0.11 0.11 0.07 0.06 0.07 0.08 0.08 0.07 0.06 0.06 0.04 0.05 0.06 0.06 0.06 0.05 0.05 0.05 0.05 0.06 0.06
0.02 0.03 0.02 0.03 0.03 0.04 0.04 0.05 0.05 0.06 0.09 0.10 0.12 0.11 0.08 0.09 0.09 0.10 0.11 0.11 0.11 0.09 0.09 0.08 0.05 0.06 0.06 0.06 0.06 0.06 0.05 0.04 0.04 0.06 0.08 0.08 0.06 0.05 0.05 0.06 0.08 0.09 0.08
0.01 0.02 0.02 0.01 0.02 0.04 0.04 0.04 0.05 0.04 0.05 0.08 0.09 0.08 0.07 0.08 0.09 0.09 0.10 0.09 0.08 0.07 0.08 0.07 0.05 0.06 0.05 0.04 0.05 0.05 0.05 0.06 0.06 0.05 0.10 0.14 0.12 0.07 0.05 0.05 0.07 0.08 0.10
0.01 0.02 0.02 0.01 0.02 0.05 0.04 0.05 0.05 0.05 0.05 0.06 0.06 0.07 0.05 0.06 0.07 0.08 0.08 0.07 0.08 0.06 0.06 0.08 0.07 0.06 0.05 0.05 0.05 0.05 0.05 0.07 0.06 0.05 0.08 0.13 0.14 0.10 0.06 0.05 0.05 0.05 0.06
0.01 0.01 0.02 0.02 0.03 0.04 0.03 0.04 0.04 0.05 0.05 0.05 0.05 0.05 0.05 0.04 0.05 0.05 0.07 0.06 0.05 0.06 0.06 0.07 0.08 0.08 0.07 0.07 0.06 0.07 0.06 0.07 0.06 0.06 0.07 0.07 0.08 0.09 0.07 0.05 0.03 0.03 0.05
0.01 0.01 0.02 0.02 0.03 0.04 0.03 0.04 0.06 0.05 0.06 0.06 0.04 0.04 0.03 0.04 0.04 0.04 0.07 0.06 0.05 0.08 0.09 0.10 0.09 0.08 0.07 0.08 0.06 0.07 0.06 0.05 0.04 0.04 0.05 0.07 0.07 0.06 0.08 0.09 0.08 0.04 0.03
0.01 0.02 0.02 0.03 0.04 0.05 0.06 0.06 0.07 0.06 0.06 0.05 0.04 0.04 0.03 0.04 0.05 0.06 0.08 0.10 0.08 0.09 0.08 0.09 0.10 0.09 0.08 0.07 0.10 0.09 0.06 0.06 0.05 0.04 0.05 0.05 0.08 0.09 0.11 0.11 0.13 0.10 0.06
0.02 0.02 0.02 0.03 0.04 0.04 0.05 0.05 0.05 0.05 0.03 0.04 0.04 0.05 0.04 0.04 0.05 0.06 0.07 0.07 0.08 0.09 0.08 0.09 0.10 0.10 0.08 0.07 0.10 0.12 0.10 0.10 0.07 0.05 0.05 0.05 0.07 0.09 0.07 0.06 0.08 0.09 0.10
0.01 0.02 0.02 0.02 0.03 0.03 0.04 0.03 0.04 0.05 0.05 0.05 0.06 0.05 0.03 0.04 0.05 0.05 0.06 0.06 0.07 0.09 0.10 0.08 0.08 0.08 0.08 0.08 0.09 0.13 0.14 0.13 0.08 0.06 0.04 0.04 0.06 0.07 0.07 0.05 0.05 0.07 0.09
0.01 0.01 0.01 0.01 0.02 0.03 0.03 0.03 0.05 0.05 0.07 0.06 0.05 0.04 0.03 0.03 0.04 0.05 0.07 0.07 0.07 0.07 0.09 0.08 0.09 0.09 0.10 0.10 0.10 0.11 0.11 0.12 0.09 0.08 0.07 0.06 0.07 0.08 0.04 0.03 0.02 0.05 0.06
0.00 0.00 0.00 0.01 0.02 0.02 0.03 0.04 0.05 0.04 0.04 0.04 0.04 0.04 0.04 0.03 0.03 0.04 0.06 0.07 0.05 0.04 0.05 0.06 0.07 0.08 0.10 0.10 0.11 0.11 0.10 0.11 0.10 0.08 0.08 0.07 0.11 0.08 0.05 0.04 0.03 0.03 0.04
0.00 0.01 0.00 0.01 0.02 0.02 0.03 0.03 0.03 0.05 0.05 0.05 0.04 0.03 0.03 0.02 0.03 0.02 0.03 0.04 0.03 0.04 0.04 0.05 0.05 0.06 0.09 0.10 0.09 0.08 0.08 0.08 0.08 0.08 0.07 0.07 0.08 0.06 0.04 0.04 0.03 0.03 0.04
MSLP
1010.74 1010.41 1010.22 1010.21 1010.33 1010.53 1010.71 1010.79 1010.72 1010.48 1010.10 1009.65 1009.21 1008.84 1008.57 1008.41 1008.32 1008.27 1008.22 1008.12 1008.00 1007.88 1007.79 1007.78 1007.88 1008.09 1008.40 1008.75 1009.12 1009.46 1009.76 1010.02 1010.25 1010.49 1010.76 1011.07 1011.42 1011.79 1012.15 1012.50 1012.82 1013.10 1013.35
1010.76 1010.56 1010.49 1010.55 1010.72 1010.93 1011.08 1011.12 1011.01 1010.75 1010.40 1010.01 1009.65 1009.37 1009.18 1009.09 1009.05 1009.01 1008.95 1008.86 1008.74 1008.64 1008.59 1008.62 1008.74 1008.95 1009.22 1009.51 1009.78 1010.01 1010.20 1010.37 1010.56 1010.79 1011.09 1011.44 1011.84 1012.25 1012.65 1013.01 1013.31 1013.57 1013.79
1010.71 1010.64 1010.69 1010.85 1011.07 1011.28 1011.42 1011.43 1011.30 1011.05 1010.73 1010.40 1010.13 1009.94 1009.83 1009.79 1009.77 1009.74 1009.66 1009.54 1009.40 1009.29 1009.24 1009.28 1009.41 1009.60 1009.84 1010.06 1010.25 1010.41 1010.53 1010.67 1010.84 1011.09 1011.43 1011.84 1012.29 1012.74 1013.16 1013.51 1013.80 1014.03 1014.23
1010.59 1010.65 1010.81 1011.06 1011.35 1011.59 1011.73 1011.74 1011.61 1011.38 1011.10 1010.85 1010.65 1010.54 1010.51 1010.51 1010.50 1010.45 1010.34 1010.19 1010.03 1009.90 1009.84 1009.87 1009.99 1010.17 1010.36 1010.53 1010.67 1010.76 1010.85 1010.96 1011.15 1011.43 1011.81 1012.27 1012.75 1013.23 1013.64 1013.98 1014.23 1014.44 1014.61
1010.41 1010.57 1010.85 1011.19 1011.55 1011.85 1012.02 1012.05 1011.95 1011.75 1011.52 1011.32 1011.20 1011.15 1011.16 1011.19 1011.19 1011.13 1011.00 1010.82 1010.65 1010.51 1010.45 1010.48 1010.59 1010.74 1010.89 1011.02 1011.10 1011.14 1011.20 1011.30 1011.49 1011.80 1012.22 1012.70 1013.21 1013.68 1014.07 1014.37 1014.59 1014.75 1014.91
1010.22 1010.46 1010.82 1011.26 1011.69 1012.04 1012.26 1012.33 1012.26 1012.11 1011.93 1011.78 1011.70 1011.70 1011.74 1011.78 1011.79 1011.73 1011.59 1011.42 1011.25 1011.13 1011.08 1011.12 1011.22 1011.35 1011.47 1011.54 1011.56 1011.56 1011.58 1011.67 1011.87 1012.19 1012.63 1013.12 1013.62 1014.07 1014.43 1014.68 1014.85 1014.97 1015.10
1010.06 1010.35 1010.78 1011.28 1011.77 1012.18 1012.44 1012.55 1012.52 1012.40 1012.26 1012.16 1012.11 1012.13 1012.19 1012.25 1012.26 1012.20 1012.09 1011.94 1011.80 1011.72 1011.70 1011.76 1011.87 1011.97 1012.05 1012.07 1012.03 1011.98 1011.96 1012.03 1012.22 1012.55 1012.99 1013.49 1013.98 1014.40 1014.71 1014.91 1015.03 1015.11 1015.22
1010.00 1010.30 1010.74 1011.28 1011.81 1012.25 1012.54 1012.68 1012.68 1012.59 1012.48 1012.40 1012.37 1012.41 1012.48 1012.54 1012.56 1012.52 1012.44 1012.33 1012.24 1012.21 1012.24 1012.33 1012.44 1012.53 1012.56 1012.53 1012.44 1012.33 1012.28 1012.32 1012.50 1012.83 1013.27 1013.77 1014.25 1014.65 1014.93 1015.09 1015.16 1015.20 1015.28
1010.05 1010.33 1010.77 1011.29 1011.82 1012.26 1012.56 1012.71 1012.72 1012.64 1012.55 1012.48 1012.47 1012.51 1012.58 1012.65 1012.68 1012.67 1012.62 1012.56 1012.53 1012.54 1012.62 1012.73 1012.85 1012.92 1012.92 1012.84 1012.70 1012.55 1012.46 1012.48 1012.65 1012.99 1013.44 1013.95 1014.43 1014.82 1015.09 1015.23 1015.27 1015.29 1015.33
1010.24 1010.48 1010.87 1011.35 1011.84 1012.24 1012.51 1012.64 1012.64 1012.57 1012.48 1012.41 1012.41 1012.46 1012.54 1012.61 1012.66 1012.67 1012.65 1012.63 1012.64 1012.69 1012.80 1012.93 1013.04 1013.10 1013.07 1012.96 1012.78 1012.60 1012.49 1012.50 1012.67 1013.02 1013.49 1014.01 1014.51 1014.93 1015.21 1015.35 1015.39 1015.39 1015.42
1010.55 1010.73 1011.06 1011.47 1011.88 1012.21 1012.42 1012.51 1012.48 1012.40 1012.31 1012.26 1012.27 1012.33 1012.41 1012.49 1012.55 1012.57 1012.57 1012.57 1012.59 1012.66 1012.78 1012.91 1013.01 1013.06 1013.01 1012.87 1012.68 1012.49 1012.37 1012.38 1012.57 1012.93 1013.42 1013.97 1014.51 1014.96 1015.28 1015.45 1015.52 1015.53 1015.54
1010.94 1011.07 1011.33 1011.65 1011.97 1012.21 1012.34 1012.37 1012.30 1012.21 1012.12 1012.08 1012.10 1012.18 1012.27 1012.36 1012.42 1012.44 1012.44 1012.43 1012.45 1012.51 1012.61 1012.72 1012.81 1012.84 1012.78 1012.65 1012.46 1012.27 1012.16 1012.18 1012.38 1012.75 1013.26 1013.84 1014.41 1014.91 1015.28 1015.51 1015.62 1015.66 1015.68
1011.37 1011.46 1011.65 1011.89 1012.10 1012.25 1012.30 1012.26 1012.16 1012.05 1011.96 1011.94 1011.98 1012.08 1012.18 1012.28 1012.33 1012.34 1012.32 1012.28 1012.27 1012.29 1012.36 1012.44 1012.51 1012.53 1012.47 1012.35 1012.18 1012.01 1011.92 1011.95 1012.15 1012.52 1013.03 1013.62 1014.21 1014.75 1015.17 1015.46 1015.64 1015.73 1015.78
1011.79 1011.86 1012.00 1012.16 1012.29 1012.34 1012.32 1012.22 1012.09 1011.97 1011.90 1011.89 1011.95 1012.06 1012.18 1012.27 1012.32 1012.31 1012.25 1012.18 1012.12 1012.10 1012.12 1012.16 1012.20 1012.21 1012.17 1012.06 1011.92 1011.79 1011.71 1011.75 1011.93 1012.27 1012.75 1013.32 1013.91 1014.46 1014.93 1015.28 1015.52 1015.67 1015.77
1012.15 1012.23 1012.33 1012.44 1012.49 1012.49 1012.41 1012.27 1012.12 1012.00 1011.93 1011.93 1012.01 1012.12 1012.25 1012.34 1012.37 1012.34 1012.26 1012.15 1012.05 1011.97 1011.94 1011.95 1011.97 1011.97 1011.94 1011.86 1011.75 1011.64 1011.58 1011.60 1011.75 1012.04 1012.46 1012.96 1013.51 1014.05 1014.53 1014.92 1015.23 1015.44 1015.60
1012.42 1012.51 1012.61 1012.68 1012.70 1012.65 1012.54 1012.40 1012.24 1012.12 1012.05 1012.06 1012.13 1012.24 1012.35 1012.43 1012.45 1012.41 1012.31 1012.18 1012.05 1011.94 1011.88 1011.86 1011.86 1011.86 1011.84 1011.78 1011.70 1011.61 1011.54 1011.54 1011.64 1011.85 1012.17 1012.58 1013.04 1013.53 1013.99 1014.40 1014.74 1015.02 1015.24
1012.58 1012.69 1012.79 1012.85 1012.86 1012.81 1012.70 1012.56 1012.42 1012.30 1012.23 1012.22 1012.27 1012.35 1012.44 1012.50 1012.51 1012.47 1012.37 1012.24 1012.11 1012.00 1011.93 1011.89 1011.88 1011.88 1011.86 1011.82 1011.76 1011.68 1011.60 1011.57 1011.59 1011.71 1011.92 1012.21 1012.56 1012.96 1013.37 1013.76 1014.12 1014.43 1014.70
1012.62 1012.75 1012.86 1012.94 1012.96 1012.93 1012.85 1012.74 1012.61 1012.50 1012.41 1012.38 1012.39 1012.42 1012.47 1012.51 1012.51 1012.48 1012.41 1012.31 1012.21 1012.12 1012.06 1012.02 1012.01 1012.01 1011.99 1011.96 1011.90 1011.82 1011.73 1011.66 1011.62 1011.65 1011.74 1011.90 1012.13 1012.42 1012.75 1013.09 1013.44 1013.76 1014.06
1012.56 1012.71 1012.84 1012.94 1013.00 1013.01 1012.97 1012.90 1012.80 1012.69 1012.59 1012.51 1012.46 1012.43 1012.43 1012.43 1012.44 1012.43 1012.40 1012.37 1012.32 1012.29 1012.25 1012.23 1012.22 1012.21 1012.19 1012.15 1012.09 1012.01 1011.92 1011.82 1011.73 1011.67 1011.66 1011.71 1011.82 1011.99 1012.22 1012.49 1012.79 1013.10 1013.40
1012.43 1012.60 1012.74 1012.87 1012.96 1013.02 1013.04 1013.02 1012.96 1012.85 1012.73 1012.60 1012.49 1012.40 1012.33 1012.31 1012.31 1012.33 1012.37 1012.41 1012.44 1012.47 1012.49 1012.49 1012.48 1012.46 1012.43 1012.38 1012.31 1012.23 1012.13 1012.02 1011.91 1011.81 1011.72 1011.68 1011.68 1011.74 1011.86 1012.04 1012.28 1012.54 1012.82
1012.26 1012.44 1012.60 1012.74 1012.88 1012.99 1013.07 1013.10 1013.08 1013.00 1012.86 1012.69 1012.51 1012.35 1012.23 1012.17 1012.17 1012.23 1012.33 1012.45 1012.57 1012.67 1012.74 1012.77 1012.76 1012.73 1012.67 1012.61 1012.54 1012.46 1012.37 1012.27 1012.16 1012.04 1011.92 1011.81 1011.73 1011.69 1011.71 1011.79 1011.94 1012.15 1012.39
1012.08 1012.27 1012.43 1012.59 1012.75 1012.91 1013.05 1013.14 1013.17 1013.11 1012.97 1012.77 1012.55 1012.33 1012.17 1012.08 1012.09 1012.17 1012.33 1012.53 1012.72 1012.89 1013.00 1013.05 1013.05 1012.99 1012.92 1012.83 1012.75 1012.68 1012.62 1012.55 1012.46 1012.35 1012.22 1012.08 1011.94 1011.82 1011.75 1011.74 1011.80 1011.93 1012.11
1011.91 1012.10 1012.26 1012.43 1012.61 1012.80 1012.99 1013.14 1013.22 1013.20 1013.08 1012.88 1012.63 1012.39 1012.19 1012.08 1012.08 1012.20 1012.40 1012.65 1012.90 1013.11 1013.26 1013.32 1013.31 1013.24 1013.14 1013.04 1012.96 1012.90 1012.87 1012.83 1012.79 1012.71 1012.60 1012.44 1012.26 1012.08 1011.93 1011.83 1011.80 1011.85 1011.98
1011.75 1011.95 1012.10 1012.26 1012.44 1012.65 1012.88 1013.08 1013.21 1013.25 1013.18 1013.01 1012.77 1012.51 1012.30 1012.18 1012.18 1012.30 1012.53 1012.80 1013.09 1013.33 1013.49 1013.55 1013.53 1013.45 1013.33 1013.22 1013.14 1013.11 1013.10 1013.11 1013.11 1013.07 1012.97 1012.81 1012.61 1012.38 1012.16 1011.99 1011.88 1011.85 1011.92
1011.59 1011.79 1011.93 1012.07 1012.24 1012.46 1012.71 1012.96 1013.15 1013.25 1013.24 1013.12 1012.92 1012.69 1012.49 1012.37 1012.36 1012.48 1012.69 1012.97 1013.26 1013.50 1013.67 1013.73 1013.70 1013.61 1013.49 1013.38 1013.31 1013.29 1013.31 1013.36 1013.39 1013.37 1013.29 1013.13 1012.91 1012.64 1012.36 1012.12 1011.94 1011.86 1011.87
1011.40 1011.61 1011.74 1011.86 1012.01 1012.22 1012.49 1012.77 1013.02 1013.19 1013.25 1013.20 1013.06 1012.87 1012.70 1012.59 1012.57 1012.68 1012.88 1013.13 1013.40 1013.63 1013.78 1013.83 1013.80 1013.71 1013.60 1013.50 1013.45 1013.45 1013.50 1013.56 1013.61 1013.61 1013.53 1013.36 1013.11 1012.80 1012.48 1012.18 1011.95 1011.81 1011.78
Thickness
5781 5781 5779 5780 5780 5780 5781 5781 5782 5783 5783 5784 5784 5784 5783 5783 5783 5783 5782 5782 5781 5781 5780 5780 5779 5778 5777 5776 5774 5773 5771 5770 5769 5767 5765 5764 5762 5761 5759 5758 5757 5755 5753
5784 5781 5779 5779 5779 5780 5780 5781 5781 5782 5782 5782 5783 5783 5783 5782 5782 5782 5781 5780 5780 5779 5779 5778 5778 5777 5776 5775 5773 5772 5771 5769 5768 5766 5765 5763 5761 5759 5758 5757 5756 5753 5751
5786 5783 5780 5778 5778 5778 5779 5779 5780 5781 5781 5782 5782 5782 5782 5782 5781 5781 5780 5780 5779 5778 5778 5777 5777 5775 5775 5774 5773 5771 5770 5769 5767 5766 5765 5763 5760 5758 5757 5755 5754 5752 5750
5787 5783 5780 5778 5777 5778 5778 5779 5779 5780 5780 5781 5781 5781 5781 5781 5780 5780 5779 5779 5778 5777 5777 5776 5775 5774 5774 5773 5772 5771 5770 5768 5767 5766 5765 5763 5761 5758 5756 5754 5752 5751 5749
5787 5783 5779 5777 5777 5777 5777 5778 5779 5779 5780 5779 5779 5779 5779 5779 5779 5778 5778 5777 5777 5776 5776 5775 5774 5774 5773 5772 5772 5771 5770 5768 5767 5766 5765 5763 5760 5758 5756 5754 5751 5750 5748
5786 5783 5778 5777 5776 5776 5777 5777 5778 5778 5779 5777 5777 5777 5777 5777 5777 5777 5776 5776 5775 5775 5775 5774 5773 5773 5772 5772 5771 5771 5770 5768 5766 5766 5765 5762 5759 5757 5755 5753 5751 5749 5747
5788 5784 5779 5777 5776 5776 5776 5776 5776 5776 5777 5776 5776 5776 5776 5776 5775 5775 5774 5774 5774 5774 5774 5773 5772 5772 5771 5771 5770 5770 5769 5767 5766 5766 5765 5762 5759 5757 5754 5752 5750 5748 5746
5790 5785 5780 5777 5776 5775 5775 5775 5775 5775 5775 5775 5775 5775 5775 5774 5774 5773 5773 5773 5773 5773 5772 5772 5772 5771 5770 5770 5770 5770 5769 5767 5767 5767 5764 5761 5759 5756 5754 5752 5749 5747 5746
5792 5787 5782 5779 5777 5775 5775 5775 5775 5774 5775 5774 5774 5774 5773 5773 5772 5772 5772 5772 5772 5772 5772 5772 5771 5770 5770 5769 5769 5769 5768 5767 5767 5767 5764 5761 5758 5756 5754 5752 5749 5747 5745
5793 5789 5786 5783 5780 5777 5776 5775 5774 5774 5774 5774 5774 5774 5773 5772 5772 5771 5770 5771 5770 5771 5771 5771 5771 5770 5770 5769 5769 5768 5768 5768 5768 5766 5763 5760 5758 5756 5754 5752 5749 5747 5745
5791 5791 5790 5787 5783 5782 5779 5776 5774 5774 5773 5773 5773 5773 5772 5772 5772 5771 5770 5770 5770 5770 5770 5770 5770 5770 5770 5770 5769 5769 5768 5768 5767 5765 5762 5759 5758 5756 5754 5751 5749 5747 5745
5787 5790 5790 5788 5786 5784 5782 5778 5777 5775 5774 5774 5774 5773 5772 5772 5772 5771 5770 5770 5770 5770 5770 5770 5770 5770 5770 5770 5770 5769 5769 5769 5767 5765 5761 5759 5757 5756 5753 5751 5749 5746 5745
5789 5790 5790 5788 5785 5784 5782 5781 5779 5777 5775 5774 5774 5773 5773 5772 5772 5771 5770 5769 5769 5770 5770 5770 5770 5770 5771 5771 5770 5769 5769 5769 5767 5764 5760 5759 5757 5755 5753 5751 5749 5747 5745
5790 5790 5790 5789 5785 5784 5782 5781 5780 5778 5776 5775 5774 5774 5773 5773 5772 5772 5772 5771 5771 5771 5771 5771 5771 5771 5772 5771 5771 5770 5770 5769 5766 5763 5759 5757 5755 5754 5752 5751 5749 5747 5746
5790 5790 5789 5788 5785 5783 5781 5781 5781 5779 5777 5775 5774 5774 5773 5773 5772 5772 5772 5772 5772 5772 5771 5770 5771 5771 5771 5771 5771 5770 5769 5767 5765 5762 5759 5756 5755 5753 5752 5751 5749 5748 5746
5792 5791 5790 5788 5786 5783 5781 5780 5779 5779 5778 5776 5774 5773 5773 5773 5772 5771 5771 5771 5772 5772 5771 5771 5771 5771 5770 5770 5770 5769 5768 5766 5763 5761 5757 5755 5754 5753 5751 5750 5748 5747 5745
5795 5794 5792 5790 5787 5784 5782 5781 5781 5780 5779 5777 5775 5774 5773 5773 5772 5772 5771 5770 5771 5772 5771 5771 5771 5771 5770 5770 5768 5767 5766 5764 5762 5760 5757 5755 5753 5751 5750 5748 5747 5746 5745
5799 5796 5795 5795 5789 5785 5783 5783 5783 5781 5780 5778 5776 5775 5774 5773 5773 5773 5772 5772 5772 5772 5772 5771 5770 5769 5768 5767 5766 5765 5764 5762 5761 5759 5757 5755 5753 5750 5748 5747 5745 5744 5743
5802 5798 5795 5793 5790 5787 5786 5784 5782 5781 5780 5779 5778 5776 5775 5775 5775 5774 5774 5773 5773 5773 5772 5771 5769 5768 5765 5764 5764 5763 5762 5761 5760 5759 5757 5755 5752 5749 5747 5745 5744 5742 5741
5806 5801 5797 5794 5791 5790 5788 5785 5783 5781 5781 5780 5779 5777 5777 5776 5776 5776 5775 5774 5775 5773 5772 5770 5768 5767 5766 5764 5763 5761 5760 5760 5759 5757 5756 5754 5752 5749 5746 5744 5741 5740 5739
5808 5802 5798 5794 5792 5790 5786 5783 5780 5779 5780 5780 5780 5779 5778 5778 5777 5777 5776 5775 5775 5773 5771 5770 5768 5766 5764 5764 5758 5754 5755 5757 5756 5755 5754 5752 5749 5747 5745 5743 5741 5739 5737
5809 5804 5800 5796 5794 5791 5789 5786 5784 5783 5782 5782 5781 5780 5780 5779 5778 5779 5776 5775 5774 5773 5771 5770 5768 5764 5763 5765 5758 5751 5744 5745 5749 5752 5751 5749 5747 5745 5743 5742 5739 5737 5735
5812 5808 5805 5800 5797 5794 5792 5790 5787 5784 5782 5781 5780 5779 5780 5780 5779 5778 5777 5776 5774 5773 5770 5769 5768 5765 5760 5762 5762 5755 5745 5738 5740 5744 5746 5745 5744 5742 5741 5739 5737 5735 5733
5818 5814 5810 5804 5800 5797 5794 5791 5787 5782 5779 5779 5780 5780 5781 5781 5780 5779 5778 5776 5775 5774 5771 5770 5769 5767 5763 5759 5760 5761 5757 5752 5742 5736 5739 5742 5742 5740 5739 5738 5735 5733 5730
5824 5819 5813 5807 5802 5799 5796 5793 5789 5786 5784 5784 5783 5781 5780 5781 5781 5780 5779 5777 5775 5773 5772 5771 5769 5767 5765 5761 5759 5758 5756 5754 5752 5741 5733 5735 5737 5737 5737 5735 5733 5730 5728
5828 5823 5816 5809 5803 5801 5797 5794 5791 5787 5785 5783 5781 5779 5779 5779 5780 5780 5779 5777 5776 5774 5772 5771 5769 5767 5765 5763 5761 5759 5756 5752 5748 5745 5737 5734 5732 5733 5734 5733 5730 5727 5725